weather.gov     
National Weather Service

Terminal Aerodrome Forecast
NWS Homepage
This page is being discontinued on March 12, 2014.
The same data is available at this site. Please update your bookmarks.
Thank you, and we apologize for the inconvenience.
Please send an email to SR-SRH.Webmaster@noaa.gov with any concerns.


Current Version
Previous Version:    01  02  03  04  05  06  07  08  09  10  11  12  13  14  15  16  17  18  19  20  21  22  23  24  25  26  27  
[Printable]
275
FTUS42 KFFC 212332
TAFPDK
TAF
KPDK 212332Z 2200/2224 00000KT P6SM SKC
     FM221300 08006KT P6SM FEW030 SCT250
     FM221800 09008KT P6SM SCT040
     FM222100 10007KT P6SM BKN040=


275
FTUS42 KFFC 212332
TAFPDK
TAF
KPDK 212332Z 2200/2224 00000KT P6SM SKC
     FM221300 08006KT P6SM FEW030 SCT250
     FM221800 09008KT P6SM SCT040
     FM222100 10007KT P6SM BKN040=




U.S. Dept. of Commerce
NOAA National Weather Service
1325 East West Highway
Silver Spring, MD 20910
E-mail: w-nws.webmaster@noaa.gov
Page last modified: May 16, 2007
NATIONAL WEATHER SERVICE: for Safety, for Work, for Fun - FOR LIFE